Tracking 20382 objects as of 24-Feb-2020
HD Live streaming from Space Station
objects crossing your sky now
Track the group of recently launched Starlink satellites

UME 2 (ISS-B)

Track UME 2 (ISS-B) now!
10-day predictions
UME 2 (ISS-B) is classified as:


NORAD ID: 10674
Int'l Code: 1978-018A
Perigee: 982.9 km
Apogee: 1,223.1 km
Inclination: 69.4 °
Period: 107.2 minutes
Semi major axis: 7473 km
RCS: 1.4219 m2 (large)
Launch date: February 16, 1978
Source: Japan (JPN)
Launch site: TANEGASHIMA SPACE CENTER (TNSTA)
aabbcc
Your satellite tracking list
Your tracking list is empty




NASA's NSSDC Master Catalog

Two Line Element Set (TLE):
1 10674U 78018A   20054.87624819 -.00000062  00000-0 -20687-4 0  9995
2 10674  69.3600 219.3341 0160683  90.1396  14.3939 13.43614687 61255
Source of the keplerian elements: AFSPC